[Iaude] MPEC W135: 2023 VY16 [a=2.12,e=0.44,i=5.9,H=21.3]
    mpec at marsden.cfa.harvard.edu 
    mpec at marsden.cfa.harvard.edu
       
    Mon Nov 27 16:50:30 EST 2023
    
    
  
M.P.E.C. 2023-W135                            Issued 2023 November 27, 21:48 UT
     The Minor Planet Electronic Circulars contain information on unusual
         minor planets, routine data on comets and natural satellites,
         and occasional editorial announcements.  They are published
    on behalf of Division F of the International Astronomical Union by the
          Minor Planet Center, Smithsonian Astrophysical Observatory,
                          Cambridge, MA 02138, U.S.A.
			  
             Prepared using the Tamkin Foundation Computer Network
                              MPC at CFA.HARVARD.EDU
            URL https://www.minorplanetcenter.net/    ISSN 1523-6714
                                   2023 VY16                                    
Observations:
     K23V16Y* C2023 11 15.34719103 46 08.749+17 55 45.55         23.56GVEW135V00
     K23V16Y  C2023 11 15.35269603 46 08.195+17 55 45.30         23.64GVEW135V00
     K23V16Y  C2023 11 15.35821703 46 07.669+17 55 44.47         21.93GVEW135V00
     K23V16Y  C2023 11 15.36371603 46 07.165+17 55 44.62         22.93GVEW135V00
     K23V16Y  C2023 11 15.38135103 46 05.406+17 55 43.30         22.7 GVEW135H01
     K23V16Y  C2023 11 15.38557103 46 05.000+17 55 43.09         22.5 GVEW135H01
     K23V16Y  C2023 11 18.33099903 41 32.551+17 53 19.19         22.43wXEW135F52
     K23V16Y  C2023 11 18.35713403 41 30.107+17 53 18.07         22.62wXEW135F52
     K23V16Y  C2023 11 18.37012403 41 28.877+17 53 17.35         22.45wXEW135F52
     K23V16Y DC2023 11 22.33792 03 35 33.05 +17 49 49.3          22.8 GVEW135695
     K23V16Y DC2023 11 22.35739 03 35 31.28 +17 49 47.9          22.9 GVEW135695
     K23V16Y DC2023 11 22.37929 03 35 29.30 +17 49 46.9          23.5 GVEW135695
Observer details:
695 Kitt Peak.  Observer J. V. Scotti.  2.3-m f/9 reflector + CCD.
F52 Pan-STARRS 2, Haleakala.  Observers J. Herman, T. Lowe, P. Minguez, A.
    Schultz, I. Smith.  Measurers K. Chambers, T. de Boer, J. Fairlamb, H.
    Gao, M. Huber, C.-C. Lin, E. Magnier, Y. Ramanjooloo, R. Wainscoat, R.
    Weryk.  1.8-m Ritchey-Chretien + CCD.
H01 Magdalena Ridge Observatory, Socorro.  Observers W. H. Ryan, E. V. Ryan.
    Measurer W. H. Ryan.  2.4-m f/8.9 Ritchey-Chretien + CCD.
V00 Kitt Peak-Bok.  Observer R. A. Mastaler.  Measurers M. J. Brucker, C. E.
    Woodward, D. Fay, J. B. Fazekas, D. C. Fuls, A. R. Gibbs, H. Groeller, J.
    K. Hogan, R. A. Kowalski, S. M. Larson, C. Lejoly, G. J. Leonard, R. A.
    Mastaler, R. S. McMillan, D. Rankin, R. L. Seaman, A. Serrano, F. C.
    Shelly, K. W. Wierzchos.  2.25-m reflector + 4x4K mosaic CCD.
Orbital elements:
2023 VY16                                                Earth MOID = 0.1933 AU
Epoch 2023 Sept. 13.0 TT = JDT 2460200.5                Bell                    
M  36.34963              (2000.0)            P               Q                  
n   0.31852952     Peri.  242.04519     +0.59517448     +0.79826868             
a   2.1234217      Node    64.77831     -0.69674556     +0.56989435             
e   0.4426253      Incl.    5.86111     -0.40039101     +0.19490393             
P   3.09           H   21.31          G   0.15           U   9                  
Residuals in seconds of arc
231115 V00  0.1+  0.1+    231115 H01  0.0   0.0     231118 F52  0.2+  0.1-
231115 V00  0.2-  0.2+    231115 H01  0.0   0.0     231122 695  0.2+  0.2+
231115 V00  0.1-  0.4-    231118 F52  0.3-  0.0     231122 695  0.0   0.1-
231115 V00  0.3+  0.0     231118 F52  0.1+  0.0     231122 695  0.1-  0.2+
Ephemeris:
2023 VY16                a,e,i = 2.12, 0.44, 6                   q = 1.1835
Date    TT    R. A. (2000) Decl.     Delta      r    Elong.  Phase     V
2023 10 28    04 13 35.8 +18 01 14   0.9603  1.8834   149.1    15.7    23.5
...
2023 11 12    03 51 23.7 +17 58 14   0.9865  1.9678   169.2     5.4    23.2
...
2023 11 20    03 39 00.7 +17 51 54   1.0239  2.0120   178.4     0.8    23.0
...
2023 11 26    03 30 23.2 +17 46 45   1.0633  2.0446   171.4     4.1    23.4
2023 11 27    03 29 02.3 +17 45 57   1.0708  2.0500   170.1     4.7    23.4
2023 11 28    03 27 43.0 +17 45 11   1.0785  2.0554   168.8     5.3    23.5
...
2023 12 04    03 20 27.8 +17 41 24   1.1304  2.0875   161.1     8.8    23.8
...
2023 12 12    03 12 49.7 +17 39 54   1.2131  2.1296   151.2    12.9    24.1
...
2023 12 27    03 05 21.7 +17 52 39   1.4041  2.2063   134.3    18.6    24.7
M. P. C. Staff               (C) Copyright 2023 MPC           M.P.E.C. 2023-W135
    
    
More information about the Iaude
mailing list